Location: College Park
(38.9810°N, 76.9370°W)
Time: 13:41:54
(UTC-05:00)

Envisat - Visible Passes

Search period start: 23 February 2018 00:00
Search period end: 05 March 2018 00:00
Orbit: 764 x 766 km, 98.2° (Epoch: 22 February)

Date Brightness Start Highest point End Pass type
(mag) Time Alt. Az. Time Alt. Az. Time Alt. Az.
23 Feb 3.0 19:19:30 10° SSE 19:24:29 60° ENE 19:29:29 10° N visible
23 Feb 5.7 21:01:06 10° SW 21:03:52 15° W 21:06:39 10° WNW visible
24 Feb 3.9 18:43:47 10° SE 18:47:59 27° ENE 18:52:13 10° NNE visible
24 Feb 4.5 20:22:18 10° SSW 20:26:51 33° W 20:31:26 10° NNW visible
25 Feb 3.1 19:44:57 10° S 19:50:01 77° WSW 19:55:08 10° NNW visible
26 Feb 3.2 19:08:34 10° SE 19:13:24 47° ENE 19:18:15 10° N visible
26 Feb 5.4 20:49:06 10° SW 20:52:38 19° W 20:56:10 10° NW visible
27 Feb 4.2 18:33:09 10° ESE 18:36:57 22° ENE 18:40:46 10° NNE visible
27 Feb 4.1 20:10:52 10° S 20:15:40 42° W 20:20:30 10° NNW visible
28 Feb 2.9 19:33:49 10° SSE 19:38:54 84° ENE 19:44:00 10° N visible
01 Mar 3.5 18:57:41 10° SE 19:02:19 37° ENE 19:06:58 10° N visible
01 Mar 5.1 20:37:21 10° SSW 20:41:24 24° W 20:45:28 10° NW visible
02 Mar 4.4 18:22:40 10° ESE 18:25:57 18° ENE 18:29:13 10° NNE visible
02 Mar 3.6 19:59:32 10° S 20:04:29 54° W 20:09:29 10° NNW visible
03 Mar 2.9 19:22:46 10° SSE 19:27:47 66° ENE 19:32:49 10° N visible
03 Mar 5.8 21:04:53 10° WSW 21:07:14 13° W 21:09:35 10° WNW visible
04 Mar 3.8 18:46:55 10° SE 18:51:16 30° ENE 18:55:38 10° N visible
04 Mar 4.7 20:25:45 10° SSW 20:30:11 30° W 20:34:39 10° NW visible
